Home   Weather   San Cristóbal   Past weeks

Flag for Venezuela Past Weather in San Cristóbal, Venezuela — Yesterday and Last 2 Weeks

Now
84 °F

Passing clouds.


Feels Like: 87 °F
Forecast: 64 / 90 °F
Wind: No wind

Location: San Antonio Del Tachira Airport

Current Time: Sep 24, 2016 at 11:49:38 PM

Latest Report: Sep 24, 2016 at 11:00 PM


Visibility: N/A

Pressure: 29.98 "Hg (27.10 "Hg at 893m altitude)

Humidity: 58%

Dew Point: 68 °F

Location of San CristóbalLocation

Past Weather in San Cristóbal — Graph

°F

San Cristóbal Temperature Yesterday

Maximum temperature yesterday: 95 °F (at 2:00 PM)
Minimum temperature yesterday: 79 °F (at 7:00 AM)
Average temperature yesterday: 89 °F

High & Low Weather Summary for the Past Weeks

 TemperatureHumidityPressure
High99 °F (Sep 12, 2:00 PM)94% (Sep 13, 7:00 AM)30.04 "Hg (Sep 13, 7:00 AM)
Low72 °F (Sep 11, 6:00 AM)29% (Sep 15, 7:00 PM)29.80 "Hg (Sep 18, 5:00 PM)
Average87 °F51%29.92 "Hg
* Reported Sep 9 10:00 PM — Sep 24 10:00 PM, San Cristóbal, Weather by CustomWeather, © 2016

Note: Actual official high and low records may vary slightly from our data, if they occured in-between our weather recording intervals... More about our weather records

Advertising

San Cristóbal Weather History for the Previous 24 Hours

Scroll right to see more
 ConditionsComfort  
Time TempWeatherWind HumidityBarometerVisibility
10:00 PM
Sat, Sep 24
82 °FPassing clouds.No wind66%29.95 "HgN/A
9:00 PM84 °FPassing clouds.2 mph62%29.92 "HgN/A
8:00 PM86 °FPassing clouds.5 mph59%29.92 "HgN/A
5:00 PM95 °FScattered clouds.7 mph32%29.83 "HgN/A
4:00 PM95 °FScattered clouds.14 mph36%29.86 "HgN/A
3:00 PM95 °FScattered clouds.12 mph36%29.89 "HgN/A
2:00 PM95 °FPartly sunny.20 mph39%29.92 "HgN/A
1:00 PM93 °FPartly sunny.12 mph44%29.95 "HgN/A
12:00 PM90 °FPartly sunny.13 mph49%29.98 "HgN/A
11:00 AM90 °FPartly sunny.13 mph49%30.01 "HgN/A
10:00 AM88 °FWarm.12 mph52%30.01 "HgN/A
9:00 AM84 °FBroken clouds.10 mph58%29.98 "HgN/A
7:00 AM79 °FPartly sunny.10 mph61%29.98 "HgN/A
6:00 AM79 °FPartly sunny.7 mph61%29.95 "HgN/A
5:00 AM77 °FPassing clouds.9 mph65%29.95 "HgN/A
2:00 AM82 °FPassing clouds.12 mph58%29.95 "HgN/A
11:00 PM
Fri, Sep 23
84 °FPassing clouds.7 mph55%29.98 "HgN/A
Weather by CustomWeather, © 2016

See weather overviewHow to use our weather pages